Etusivu
METAR-TAF:

METAR-TAF

Lentoasemat :

Río Cuarto, Argentiina

Leveyspiiri: 33-07S, Pituuspiiri: 064-14W, korkeus merenpinnasta: 420 m

Tämänhetkinen sää

Tämä raportti tehtiin 15 minuuttia sitten, kello 15.00 UTC
Tuuli 6 kn pohjoisesta
Lämpötila 15°C
Kosteus 41%
Ilmanpaine 1016 hPa
Näkyvyys 10 km tai enemmän
ei pilviä alle 1500 m:ssä eikä cumulonimbus-pilviä

METAR: SAOC 061500Z 36006KT CAVOK 15/02 Q1016

Aika: 12:15 (15:15 UTC)


TAF: puuttuu

Säähavainnot ja -ennusteet yli 4000 lentoasemalta (METAR- ja TAF-raportit).

Käytössä olevat sääasemat on merkitty karttaan keltaisilla ja punaisilla pisteillä.

Aseta hiiri pisteen päälle nähdäksesi sääaseman nimen.

Klikkaa sitten nähdäksesi säähavainnot ja -ennusteet.

Kartan vaihtaminen: klikkaa mustalla rastilla varustettuja vihreitä pisteitä, niin voit zoomata sisään; viivalla varustettua vihreää pistettä, niin voit zoomata ulos tai vihreitä nuolia, niin pääset viereisille kartoille.


METAR-TAF: